Lacey, Washington, United States (98503)
Lat: 47.03N, Lon: 122.82W
Wx Zone: WAZ504
Local Info
Past Weather Observations for Today

NOTE: This archive is for the closest National Weather Service station to Lacey. Information may differ from the station used for current weather conditions.

Click here for Long-term Archive

Time Weather Temperature Dewpoint Humidity Pressure Winds Precip Visibility
07:54
Obscured
Fog
45°F / 7°C 45°F / 7°C 100% 30.04 in
(1017 mb)
Calm - M1/4SM
06:54
Obscured
Fog
43°F / 6°C 43°F / 6°C 100% 30.04 in
(1017 mb)
Calm - 1/4SM
06:34
Obscured
Fog
43°F / 6°C 43°F / 6°C 100% 30.04 in
(1017 mb)
Calm - 1/4SM
05:54
Obscured
Fog
43°F / 6°C 41°F / 5°C 93% 30.04 in
(1017 mb)
Calm - 1/2SM
05:10
Obscured
Fog
43°F / 6°C 43°F / 6°C 100% 30.04 in
(1017 mb)
SSE 3.5 mph
(SSE 6 kph)
- 1/4SM
05:01
Obscured
Fog
43°F / 6°C 43°F / 6°C 100% 30.04 in
(1017 mb)
Calm - 1/2SM
04:54
Obscured
Fog And Mist
43°F / 6°C 43°F / 6°C 100% 30.04 in
(1017 mb)
Calm - 1SM
04:38
Obscured
Fog
45°F / 7°C 43°F / 6°C 93% 30.04 in
(1017 mb)
Calm - 1/2SM
04:31
Obscured
Fog
43°F / 6°C 43°F / 6°C 100% 30.04 in
(1017 mb)
Calm - 1/4SM
04:23
Obscured
Fog
43°F / 6°C 43°F / 6°C 100% 30.04 in
(1017 mb)
Calm - 1/2SM
04:07
Obscured
Fog
43°F / 6°C 43°F / 6°C 100% 30.01 in
(1016 mb)
Calm - 1/4SM
03:54
Overcast
Fog
43°F / 6°C 43°F / 6°C 100% 30.04 in
(1017 mb)
Calm - 1/2SM
03:47
Overcast
Fog
45°F / 7°C 45°F / 7°C 100% 30.04 in
(1017 mb)
Calm - 1/4SM
03:26
Mostly Cloudy
Fog
45°F / 7°C 45°F / 7°C 100% 30.04 in
(1017 mb)
Calm - 1/2SM
03:17
Mostly Cloudy
Fog
45°F / 7°C 43°F / 6°C 93% 30.04 in
(1017 mb)
Calm - 1/2SM
03:08
Obscured
Fog
45°F / 7°C 45°F / 7°C 100% 30.04 in
(1017 mb)
Calm - 1/2SM
02:58
Clear
Fog And Mist
45°F / 7°C 45°F / 7°C 100% 30.04 in
(1017 mb)
Calm - 3/4SM
02:54
Clear
Fog And Mist
45°F / 7°C 45°F / 7°C 100% 30.04 in
(1017 mb)
Calm - 1 3/4SM
02:32
Partly Cloudy
46°F / 8°C 45°F / 7°C 93% 30.04 in
(1017 mb)
Calm - 7SM
02:06
Mostly Cloudy
46°F / 8°C 46°F / 8°C 100% 30.04 in
(1017 mb)
Calm - 10SM
01:54
Mostly Cloudy
46°F / 8°C 45°F / 7°C 93% 30.04 in
(1017 mb)
Calm 0.00 in
(0.00 mm)
8SM
00:54
Overcast
48°F / 9°C 46°F / 8°C 94% 30.04 in
(1017 mb)
Calm - 10SM
Time Weather Temperature Dewpoint Humidity Pressure Winds Precip Visibility


Weather for websites

WeatherForYou.com, LLC is not responsible for any damages or problems caused by this service. Current weather conditions are obtained from the closest station including government and personal stations which may have varying degrees of accuracy. Weather forecasts are derived from the NOAA NDFD. Like all things, this site belongs to Jesus Christ... He just trusts me to maintain it. If you have any questions or comments email webmaster@weatherforyou.com

Copyright © 2014, WeatherForYou.com LLC. All rights reserved.